GW0552 Weather Reports


time (UTC)temp
C
wind
direction
speed
KPH
gust
KPH
rain 1hr
cm
rain 24hr
cm
rain mn
cm
humidity
%
barometer
mb
20260903050132 22 60 0.0 0.0 0.00 0.00 0.00 99 1013.4
20260903045631 23 65 0.0 0.0 0.00 0.00 0.00 99 1013.1
20260903045128 23 65 0.0 1.6 0.00 0.00 0.00 99 1013.2
20260903044624 23 64 0.0 0.0 0.00 0.00 0.00 99 1013.2
20260903044119 23 62 0.0 0.0 0.00 0.00 0.00 99 1013.3
20260903043616 23 61 0.0 0.0 0.00 0.00 0.00 99 1013.3
20260903043115 23 66 0.0 0.0 0.00 0.00 0.00 99 1013.1
20260903042609 23 70 0.0 0.0 0.00 0.00 0.00 99 1013.3
20260903042105 23 67 0.0 0.0 0.00 0.00 0.00 99 1013.2
20260903041601 23 67 0.0 0.0 0.00 0.00 0.00 99 1013.2
20260903041102 23 67 0.0 0.0 0.00 0.00 0.00 99 1013.4
20260903040600 23 67 0.0 0.0 0.00 0.00 0.00 99 1013.4
20260903040057 23 67 0.0 0.0 0.00 0.00 0.00 99 1013.3
20260903035553 23 67 0.0 0.0 0.00 0.00 0.00 99 1013.5
20260903035048 23 67 0.0 0.0 0.00 0.00 0.00 99 1013.3
20260903034543 23 67 0.0 0.0 0.00 0.00 0.00 99 1013.4
20260903034038 23 67 0.0 0.0 0.00 0.00 0.00 99 1013.4
20260903033533 23 67 0.0 0.0 0.00 0.00 0.00 99 1013.3
20260903033028 23 67 0.0 0.0 0.00 0.00 0.00 99 1013.5
20260903032523 23 67 0.0 0.0 0.00 0.00 0.00 99 1013.4
20260903032018 23 66 0.0 0.0 0.00 0.00 0.00 99 1013.6
20260903031513 23 66 0.0 0.0 0.00 0.00 0.00 99 1013.4
20260903031008 23 67 0.0 1.6 0.00 0.00 0.00 99 1013.6
20260903030504 23 81 1.6 1.6 0.00 0.00 0.00 99 1013.4
20260903025959 23 70 0.0 0.0 0.00 0.00 0.00 99 1013.4
20260903025455 23 69 0.0 0.0 0.00 0.00 0.00 99 1013.4
20260903024950 24 68 0.0 0.0 0.00 0.00 0.00 98 1013.5
20260903024449 24 68 0.0 0.0 0.00 0.00 0.00 98 1013.7
20260903023944 24 68 0.0 0.0 0.00 0.00 0.00 98 1013.5
20260903023440 24 68 0.0 0.0 0.00 0.00 0.00 98 1013.7
20260903022935 24 68 0.0 0.0 0.00 0.00 0.00 98 1013.6
20260903022434 24 68 0.0 0.0 0.00 0.00 0.00 98 1013.4
20260903021932 24 68 0.0 0.0 0.00 0.00 0.00 98 1013.1
20260903021428 24 68 0.0 0.0 0.00 0.00 0.00 98 1013.6
20260903020923 24 68 0.0 0.0 0.00 0.00 0.00 98 1013.3
20260903020418 25 68 0.0 0.0 0.00 0.00 0.00 98 1013.5
20260903015913 25 67 0.0 0.0 0.00 0.00 0.00 97 1013.3
20260903015409 25 65 0.0 0.0 0.00 0.00 0.00 97 1013.5
20260903014904 25 72 0.0 0.0 0.00 0.00 0.00 97 1013.3
20260903014403 25 71 0.0 0.0 0.00 0.00 0.00 97 1013.5
20260903013858 25 71 0.0 0.0 0.00 0.00 0.00 97 1013.5
20260903013358 25 66 0.0 0.0 0.00 0.00 0.00 96 1013.4
20260903012857 25 67 0.0 0.0 0.00 0.00 0.00 96 1013.5
20260903012356 25 66 0.0 0.0 0.00 0.00 0.00 96 1013.2
20260903011855 25 66 0.0 0.0 0.00 0.00 0.00 96 1013.1
20260903011350 25 66 0.0 0.0 0.00 0.00 0.00 96 1013.2
20260903010846 25 66 0.0 0.0 0.00 0.00 0.00 95 1013.2
20260903010341 25 66 0.0 0.0 0.00 0.00 0.00 95 1013.0
20260903005839 25 66 0.0 0.0 0.00 0.00 0.00 95 1012.9
20260903005334 25 66 0.0 0.0 0.00 0.00 0.00 95 1013.0
20260903004831 25 66 0.0 0.0 0.00 0.00 0.00 95 1012.9
20260903004326 25 71 0.0 0.0 0.00 0.00 0.00 94 1012.8
20260903003821 26 69 0.0 0.0 0.00 0.00 0.00 94 1013.0
20260903003316 26 66 0.0 0.0 0.00 0.00 0.00 94 1012.5
20260903002816 26 67 0.0 0.0 0.00 0.00 0.00 94 1012.6
20260903002315 26 74 1.6 1.6 0.00 0.00 0.00 93 1012.6
20260903001810 26 77 1.6 1.6 0.00 0.00 0.00 93 1012.6
20260903001306 26 77 1.6 1.6 0.00 0.00 0.00 92 1012.6
20260903000806 26 80 0.0 0.0 0.00 0.00 0.00 91 1012.5
20260903000303 26 80 0.0 0.0 0.00 0.00 0.00 90 1012.6
20260902235758 27 81 0.0 0.0 0.00 0.00 0.00 89 1012.6
20260902235254 27 80 0.0 0.0 0.00 0.00 0.00 89 1012.7
20260902234754 27 81 0.0 0.0 0.00 0.00 0.00 88 1012.5
20260902234248 27 80 0.0 0.0 0.00 0.00 0.00 86 1012.6
20260902233747 27 80 0.0 0.0 0.00 0.00 0.00 84 1012.7
20260902233242 28 80 0.0 0.0 0.00 0.00 0.00 83 1012.6
20260902232740 28 80 0.0 0.0 0.00 0.00 0.00 82 1012.8
20260902232235 28 80 0.0 0.0 0.00 0.00 0.00 81 1012.7
20260902231734 28 80 0.0 0.0 0.00 0.00 0.00 80 1012.7
20260902231230 28 80 0.0 0.0 0.00 0.00 0.00 79 1013.0
20260902230724 29 80 0.0 0.0 0.00 0.00 0.00 78 1012.5
20260902230223 29 80 0.0 0.0 0.00 0.00 0.00 76 1012.8
20260902225718 30 80 0.0 0.0 0.00 0.00 0.00 76 1012.9
20260902225219 30 80 0.0 0.0 0.00 0.00 0.00 74 1012.6
20260902224717 30 80 0.0 0.0 0.00 0.00 0.00 73 1012.9
20260902224212 31 80 0.0 0.0 0.00 0.00 0.00 72 1012.7
20260902223708 31 80 0.0 0.0 0.00 0.00 0.00 70 1012.9
20260902223208 31 80 0.0 0.0 0.00 0.00 0.00 70 1013.0
20260902222707 32 80 0.0 0.0 0.00 0.00 0.00 68 1012.7
20260902222201 32 75 0.0 0.0 0.00 0.00 0.00 66 1012.8
20260902221655 32 70 0.0 0.0 0.00 0.00 0.00 64 1012.8
20260902221154 33 69 1.6 1.6 0.00 0.00 0.00 63 1012.9
20260902220651 33 76 8.0 12.9 0.00 0.00 0.00 60 1012.9
20260902220145 33 88 3.2 4.8 0.00 0.00 0.00 62 1012.7
20260902215641 33 71 6.4 8.0 0.00 0.00 0.00 59 1012.8
20260902215136 33 62 8.0 9.7 0.00 0.00 0.00 59 1012.8
20260902214631 33 72 1.6 1.6 0.00 0.00 0.00 60 1012.8
20260902214130 34 88 6.4 8.0 0.00 0.00 0.00 58 1012.8
20260902213626 33 64 1.6 1.6 0.00 0.00 0.00 60 1012.7
20260902213125 34 75 1.6 1.6 0.00 0.00 0.00 62 1012.9
20260902212620 34 81 1.6 1.6 0.00 0.00 0.00 61 1012.9
20260902212117 34 75 4.8 4.8 0.00 0.00 0.00 59 1012.8
20260902211613 34 95 3.2 4.8 0.00 0.00 0.00 58 1012.9
20260902211108 35 75 4.8 4.8 0.00 0.00 0.00 59 1013.0
20260902210607 35 80 3.2 3.2 0.00 0.00 0.00 58 1013.1
20260902205601 35 74 0.0 0.0 0.00 0.00 0.00 59 1012.9
20260902205057 35 78 0.0 1.6 0.00 0.00 0.00 57 1013.1
20260902204556 35 78 0.0 0.0 0.00 0.00 0.00 57 1013.0
20260902204052 35 83 0.0 0.0 0.00 0.00 0.00 57 1013.3
20260902203547 35 66 0.0 0.0 0.00 0.00 0.00 57 1013.5
20260902203046 35 85 0.0 0.0 0.00 0.00 0.00 59 1013.4
20260902202542 35 79 6.4 8.0 0.00 0.00 0.00 56 1013.4
20260902202038 35 70 0.0 1.6 0.00 0.00 0.00 57 1013.3
20260902201534 35 54 4.8 8.0 0.00 0.00 0.00 57 1013.3
20260902201033 35 88 3.2 3.2 0.00 0.00 0.00 54 1013.4
20260902200528 35 77 0.0 0.0 0.00 0.00 0.00 57 1013.8
20260902200024 35 75 0.0 0.0 0.00 0.00 0.00 59 1013.7
20260902195520 33 32 3.2 3.2 0.00 0.00 0.00 57 1013.7
20260902195019 33 89 3.2 4.8 0.00 0.00 0.00 59 1013.7
20260902194519 35 48 1.6 1.6 0.00 0.00 0.00 57 1013.8
20260902194014 34 34 0.0 1.6 0.00 0.00 0.00 56 1014.0
20260902193510 35 62 8.0 11.3 0.00 0.00 0.00 56 1013.8
20260902193009 35 84 4.8 8.0 0.00 0.00 0.00 54 1013.9
20260902192508 35 85 1.6 3.2 0.00 0.00 0.00 56 1013.9
20260902192007 34 0 4.8 4.8 0.00 0.00 0.00 58 1013.8
20260902191502 34 92 8.0 9.7 0.00 0.00 0.00 57 1013.9
20260902190957 34 142 4.8 9.7 0.00 0.00 0.00 61 1013.8
20260902190452 34 91 6.4 9.7 0.00 0.00 0.00 60 1014.1
20260902185948 35 66 1.6 1.6 0.00 0.00 0.00 56 1014.0
20260902185444 34 81 4.8 8.0 0.00 0.00 0.00 56 1014.1
20260902184939 34 103 3.2 4.8 0.00 0.00 0.00 59 1014.0
20260902184434 35 69 1.6 3.2 0.00 0.00 0.00 58 1014.2
20260902183929 35 69 1.6 1.6 0.00 0.00 0.00 57 1014.2
20260902183426 34 126 8.0 8.0 0.00 0.00 0.00 56 1014.3
20260902182921 34 88 4.8 4.8 0.00 0.00 0.00 63 1014.5
20260902182417 34 141 6.4 8.0 0.00 0.00 0.00 61 1014.5
20260902181914 34 79 0.0 0.0 0.00 0.00 0.00 60 1014.3
20260902181409 33 39 1.6 1.6 0.00 0.00 0.00 60 1014.3
20260902180903 33 82 0.0 0.0 0.00 0.00 0.00 61 1014.4
20260902180358 33 63 0.0 1.6 0.00 0.00 0.00 61 1014.5
20260902175854 33 65 0.0 0.0 0.00 0.00 0.00 60 1014.5
20260902175349 34 102 1.6 3.2 0.00 0.00 0.00 64 1014.5
20260902174844 33 61 0.0 0.0 0.00 0.00 0.00 70 1014.6
20260902174341 33 53 8.0 9.7 0.00 0.00 0.00 59 1014.7
20260902173831 35 69 0.0 0.0 0.00 0.00 0.00 58 1014.9
20260902173331 34 59 0.0 1.6 0.00 0.00 0.00 63 1015.1
20260902172831 35 70 0.0 1.6 0.00 0.00 0.00 58 1015.0
20260902172325 34 15 3.2 3.2 0.00 0.00 0.00 58 1015.3
20260902171820 33 30 0.0 0.0 0.00 0.00 0.00 60 1015.3
20260902171315 33 53 0.0 0.0 0.00 0.00 0.00 60 1015.2
20260902170806 33 338 3.2 3.2 0.00 0.00 0.00 61 1015.5
20260902170300 33 68 0.0 1.6 0.00 0.00 0.00 61 1015.5
20260902165756 33 53 0.0 0.0 0.00 0.00 0.00 62 1015.7
20260902165250 33 19 0.0 0.0 0.00 0.00 0.00 60 1015.7
20260902164744 33 36 0.0 0.0 0.00 0.00 0.00 63 1015.8
20260902164238 33 10 0.0 0.0 0.00 0.00 0.00 63 1015.9
20260902163734 33 61 1.6 3.2 0.00 0.00 0.00 64 1016.0
20260902163233 33 104 4.8 4.8 0.00 0.00 0.00 66 1016.1
20260902162732 32 50 1.6 1.6 0.00 0.00 0.00 65 1016.1
20260902162227 33 54 0.0 1.6 0.00 0.00 0.00 66 1016.2
20260902161722 33 92 0.0 1.6 0.00 0.00 0.00 67 1016.1
20260902161217 32 56 0.0 0.0 0.00 0.00 0.00 70 1016.4
20260902160714 32 80 3.2 3.2 0.00 0.00 0.00 66 1016.2
20260902160208 32 66 4.8 8.0 0.00 0.00 0.00 65 1016.2
20260902155706 32 28 0.0 0.0 0.00 0.00 0.00 67 1016.2
20260902155205 32 49 1.6 1.6 0.00 0.00 0.00 68 1016.3
20260902154701 32 80 1.6 3.2 0.00 0.00 0.00 71 1016.3
20260902154200 32 43 0.0 0.0 0.00 0.00 0.00 68 1016.4
20260902153655 31 73 3.2 3.2 0.00 0.00 0.00 70 1016.4
20260902153150 31 66 0.0 0.0 0.00 0.00 0.00 71 1016.4
20260902152646 31 34 0.0 0.0 0.00 0.00 0.00 72 1016.3
20260902152141 31 271 3.2 4.8 0.00 0.00 0.00 73 1016.3
20260902151636 31 77 0.0 0.0 0.00 0.00 0.00 74 1016.2
20260902151137 31 359 3.2 4.8 0.00 0.00 0.00 74 1016.3
20260902150632 31 49 0.0 0.0 0.00 0.00 0.00 78 1016.4
20260902150127 30 66 0.0 0.0 0.00 0.00 0.00 79 1016.4
20260902145622 30 47 0.0 0.0 0.00 0.00 0.00 82 1016.2
20260902145121 30 93 0.0 0.0 0.00 0.00 0.00 82 1016.2
20260902144618 29 81 0.0 0.0 0.00 0.00 0.00 80 1016.2
20260902144118 29 59 1.6 3.2 0.00 0.00 0.00 81 1016.0
20260902143613 28 63 0.0 0.0 0.00 0.00 0.00 88 1016.1
20260902143109 28 34 0.0 0.0 0.00 0.00 0.00 90 1016.1
20260902142605 28 38 0.0 0.0 0.00 0.00 0.00 90 1016.3
20260902142100 27 37 0.0 1.6 0.00 0.00 0.00 89 1016.1
20260902141600 27 53 0.0 0.0 0.00 0.00 0.00 89 1016.1
20260902141055 27 39 0.0 0.0 0.00 0.00 0.00 88 1016.1
20260902140549 27 127 6.4 12.9 0.00 0.00 0.00 88 1016.1
20260902140046 27 117 3.2 3.2 0.00 0.00 0.00 87 1016.0
20260902135545 26 126 1.6 1.6 0.00 0.00 0.00 90 1016.0
20260902135045 26 120 1.6 1.6 0.00 0.00 0.00 91 1016.0
20260902134541 26 120 0.0 0.0 0.00 0.00 0.00 94 1015.8
20260902134041 25 110 0.0 0.0 0.00 0.00 0.00 96 1015.9
20260902133536 25 114 0.0 0.0 0.00 0.00 0.00 98 1015.9
20260902133036 25 114 0.0 0.0 0.00 0.00 0.00 99 1016.1
20260902132531 24 113 0.0 0.0 0.00 0.00 0.00 99 1015.9
20260902132026 23 110 0.0 0.0 0.00 0.00 0.00 99 1016.0
20260902131522 23 114 0.0 0.0 0.00 0.00 0.00 99 1015.9
20260902130918 22 117 0.0 0.0 0.00 0.00 0.00 99 1016.0
20260902130414 22 117 0.0 0.0 0.00 0.00 0.00 99 1016.0
20260902125908 22 116 0.0 0.0 0.00 0.00 0.00 99 1015.9
20260902125405 22 117 0.0 0.0 0.00 0.00 0.00 99 1015.8
20260902124900 22 116 0.0 0.0 0.00 0.00 0.00 99 1015.9
20260902124356 21 118 0.0 0.0 0.00 0.00 0.00 99 1016.0
20260902123851 21 119 0.0 0.0 0.00 0.00 0.00 99 1016.0
20260902123348 21 121 0.0 0.0 0.00 0.00 0.00 99 1015.8
20260902122846 21 120 0.0 0.0 0.00 0.00 0.00 99 1015.9
20260902122342 21 120 0.0 0.0 0.00 0.00 0.00 99 1015.8
20260902121842 20 121 0.0 0.0 0.00 0.00 0.00 99 1016.0
20260902121337 20 121 0.0 0.0 0.00 0.00 0.00 99 1015.9
20260902120832 20 121 0.0 0.0 0.00 0.00 0.00 99 1016.0
20260902120328 20 121 0.0 0.0 0.00 0.00 0.00 99 1015.8
20260902115823 20 121 0.0 0.0 0.00 0.00 0.00 99 1016.0
20260902115319 20 121 0.0 0.0 0.00 0.00 0.00 99 1015.9
20260902114710 20 120 0.0 0.0 0.00 0.00 0.00 99 1015.7
20260902114206 20 120 0.0 0.0 0.00 0.00 0.00 99 1015.7
20260902113700 20 121 0.0 0.0 0.00 0.00 0.00 99 1015.7
20260902113155 20 120 0.0 0.0 0.00 0.00 0.00 99 1015.5
20260902112655 20 120 0.0 0.0 0.00 0.00 0.00 99 1015.5
20260902112153 20 121 0.0 0.0 0.00 0.00 0.00 99 1015.3
20260902111648 20 121 0.0 0.0 0.00 0.00 0.00 99 1015.3
20260902111143 20 123 0.0 0.0 0.00 0.00 0.00 99 1015.3
20260902110639 20 121 0.0 0.0 0.00 0.00 0.00 99 1015.1
20260902110135 20 122 0.0 0.0 0.00 0.00 0.00 99 1015.1
20260902105634 20 122 0.0 0.0 0.00 0.00 0.00 99 1015.2
20260902105130 20 121 0.0 0.0 0.00 0.00 0.00 99 1015.0
20260902104625 20 121 0.0 0.0 0.00 0.00 0.00 99 1015.3
20260902104120 20 120 0.0 0.0 0.00 0.00 0.00 99 1015.1
20260902103619 20 121 0.0 0.0 0.00 0.00 0.00 99 1015.3
20260902103115 20 121 0.0 0.0 0.00 0.00 0.00 99 1015.3
20260902102611 20 121 0.0 0.0 0.00 0.00 0.00 99 1015.2
20260902102108 20 122 0.0 0.0 0.00 0.00 0.00 99 1015.3
20260902101603 20 121 0.0 0.0 0.00 0.00 0.00 99 1015.3
20260902101102 20 121 0.0 0.0 0.00 0.00 0.00 99 1014.9
20260902100551 20 121 0.0 0.0 0.00 0.00 0.00 99 1015.1
20260902100046 20 122 0.0 0.0 0.00 0.00 0.00 99 1014.9
20260902095546 20 124 0.0 0.0 0.00 0.00 0.00 99 1015.1
20260902095045 20 122 0.0 0.0 0.00 0.00 0.00 99 1015.0
20260902094541 20 122 0.0 0.0 0.00 0.00 0.00 99 1015.0
20260902094036 20 123 0.0 0.0 0.00 0.00 0.00 99 1015.1
20260902093531 20 122 0.0 0.0 0.00 0.00 0.00 99 1015.0
20260902093031 20 122 0.0 0.0 0.00 0.00 0.00 99 1014.8
20260902092526 20 121 0.0 0.0 0.00 0.00 0.00 99 1015.0
20260902092021 20 122 0.0 0.0 0.00 0.00 0.00 99 1014.9
20260902091516 20 121 0.0 0.0 0.00 0.00 0.00 99 1015.1
20260902091012 20 121 0.0 0.0 0.00 0.00 0.00 99 1015.0
20260902090508 20 121 0.0 0.0 0.00 0.00 0.00 99 1015.0
20260902090006 20 121 0.0 0.0 0.00 0.00 0.00 99 1015.1
20260902085501 20 119 0.0 0.0 0.00 0.00 0.00 99 1015.1
20260902084956 20 121 0.0 0.0 0.00 0.00 0.00 99 1014.7
20260902084453 21 122 0.0 0.0 0.00 0.00 0.00 99 1014.6
20260902083948 21 121 0.0 0.0 0.00 0.00 0.00 99 1014.9
20260902083448 21 119 0.0 0.0 0.00 0.00 0.00 99 1014.7
20260902082943 21 122 0.0 0.0 0.00 0.00 0.00 99 1014.6
20260902082438 21 121 0.0 0.0 0.00 0.00 0.00 99 1014.6
20260902081935 21 124 0.0 0.0 0.00 0.00 0.00 99 1014.6
20260902081431 21 136 0.0 0.0 0.00 0.00 0.00 99 1014.6
20260902080926 21 123 0.0 0.0 0.00 0.00 0.00 99 1014.6
20260902080422 21 122 0.0 0.0 0.00 0.00 0.00 99 1014.8
20260902075921 21 121 0.0 0.0 0.00 0.00 0.00 99 1014.4
20260902075418 21 121 0.0 0.0 0.00 0.00 0.00 99 1014.6
20260902074913 21 121 0.0 0.0 0.00 0.00 0.00 99 1014.6
20260902074409 21 122 0.0 0.0 0.00 0.00 0.00 99 1014.6
20260902073903 21 121 0.0 0.0 0.00 0.00 0.00 99 1014.7
20260902073400 21 119 0.0 0.0 0.00 0.00 0.00 99 1014.5
20260902072855 21 121 0.0 0.0 0.00 0.00 0.00 99 1014.6
20260902072351 21 121 0.0 0.0 0.00 0.00 0.00 99 1014.5
20260902071847 21 121 0.0 0.0 0.00 0.00 0.00 99 1014.5
20260902071347 21 121 0.0 0.0 0.00 0.00 0.00 99 1014.4
20260902070843 21 121 0.0 0.0 0.00 0.00 0.00 99 1014.5
20260902070338 21 128 0.0 0.0 0.00 0.00 0.00 99 1014.6
20260902065836 21 122 0.0 0.0 0.00 0.00 0.00 99 1014.5
20260902065332 21 121 0.0 0.0 0.00 0.00 0.00 99 1014.4
20260902064827 21 120 0.0 0.0 0.00 0.00 0.00 99 1014.3
20260902064324 21 125 0.0 0.0 0.00 0.00 0.00 99 1014.3
20260902063819 21 123 0.0 0.0 0.00 0.00 0.00 99 1014.2
20260902063319 21 121 0.0 0.0 0.00 0.00 0.00 99 1014.4
20260902062818 21 121 0.0 0.0 0.00 0.00 0.00 99 1014.4
20260902062249 21 122 0.0 0.0 0.00 0.00 0.00 99 1014.4
20260902061748 21 122 0.0 0.0 0.00 0.00 0.00 99 1014.4
20260902061238 21 122 0.0 0.0 0.00 0.00 0.00 99 1014.4
20260902060735 21 122 0.0 0.0 0.00 0.00 0.00 99 1014.4
20260902060231 21 122 0.0 0.0 0.00 0.00 0.00 99 1014.6
20260902055726 21 122 0.0 0.0 0.00 0.00 0.00 99 1014.4
20260902055222 22 120 0.0 0.0 0.00 0.00 0.00 99 1014.3
20260902054717 22 120 0.0 0.0 0.00 0.00 0.00 99 1014.3
20260902054213 22 120 0.0 0.0 0.00 0.00 0.00 99 1014.2
20260902053708 22 120 0.0 0.0 0.00 0.00 0.00 99 1014.2
20260902053207 22 121 0.0 0.0 0.00 0.00 0.00 99 1014.2
20260902052707 22 128 0.0 0.0 0.00 0.00 0.00 99 1014.3
20260902052202 22 128 0.0 0.0 0.00 0.00 0.00 99 1014.1
20260902051701 22 124 0.0 0.0 0.00 0.00 0.00 99 1014.2
20260902051157 22 126 0.0 0.0 0.00 0.00 0.00 99 1014.3
20260902050657 22 127 1.6 1.6 0.00 0.00 0.00 99 1014.0